MLE0465 SBGR-SBSL

Flight info

Callsign MLE0465
Flight time 3h 22m
Altitude 34000
Route XOLUS1A ISMOB UZ26 SEKPO DCT KADAG UZ2 SLI DCT
Aircraft A320/M-VGDW/C

Departure

Time 2026-04-25 16:54
Airport São Paulo/Guarulhos–Governor André Franco Montoro International Airport (SBGR)

Arrival

Time 2026-04-25 20:16
Airport Marechal Cunha Machado International Airport (SBSL)
Time Latitude Longitude Altitude Speed Heading
2026-04-25 15:37 -23.42810 -46.48243 2462 ft 0 kts 265°
2026-04-25 16:31 -23.42810 -46.48240 2461 ft 2 kts 265°
2026-04-25 16:31 -23.42806 -46.48212 2464 ft 4 kts 254°
2026-04-25 16:31 -23.42796 -46.48187 2461 ft 4 kts 223°
2026-04-25 16:32 -23.42780 -46.48178 2463 ft 0 kts 175°
2026-04-25 16:38 -23.42788 -46.48177 2461 ft 4 kts 175°
2026-04-25 16:38 -23.42836 -46.48173 2462 ft 10 kts 175°
2026-04-25 16:39 -23.42911 -46.48161 2465 ft 10 kts 164°
2026-04-25 16:39 -23.42971 -46.48140 2463 ft 8 kts 171°
2026-04-25 16:39 -23.43019 -46.48133 2463 ft 6 kts 173°
2026-04-25 16:39 -23.43056 -46.48128 2464 ft 4 kts 173°
2026-04-25 16:40 -23.43081 -46.48125 2463 ft 3 kts 175°
2026-04-25 16:40 -23.43093 -46.48124 2462 ft 1 kts 175°
2026-04-25 16:40 -23.43130 -46.48120 2463 ft 10 kts 172°
2026-04-25 16:40 -23.43175 -46.48087 2461 ft 7 kts 115°
2026-04-25 16:41 -23.43176 -46.48042 2461 ft 5 kts 76°
2026-04-25 16:41 -23.43170 -46.48019 2463 ft 4 kts 75°
2026-04-25 16:41 -23.43141 -46.47911 2461 ft 10 kts 73°
2026-04-25 16:42 -23.43117 -46.47826 2463 ft 13 kts 73°
2026-04-25 16:42 -23.43087 -46.47721 2464 ft 16 kts 72°
2026-04-25 16:42 -23.43049 -46.47594 2463 ft 19 kts 72°
2026-04-25 16:42 -23.43013 -46.47447 2460 ft 20 kts 75°
2026-04-25 16:43 -23.42977 -46.47308 2464 ft 18 kts 73°
2026-04-25 16:43 -23.42943 -46.47186 2460 ft 16 kts 73°
2026-04-25 16:43 -23.42915 -46.47083 2463 ft 13 kts 73°
2026-04-25 16:43 -23.42891 -46.46997 2465 ft 11 kts 74°
2026-04-25 16:44 -23.42872 -46.46925 2461 ft 9 kts 74°
2026-04-25 16:44 -23.42857 -46.46868 2463 ft 7 kts 74°
2026-04-25 16:44 -23.42846 -46.46823 2464 ft 6 kts 74°
2026-04-25 16:44 -23.42827 -46.46752 2462 ft 13 kts 74°
2026-04-25 16:45 -23.42802 -46.46659 2463 ft 12 kts 74°
2026-04-25 16:45 -23.42781 -46.46579 2461 ft 10 kts 74°
2026-04-25 16:45 -23.42761 -46.46502 2463 ft 12 kts 74°
2026-04-25 16:45 -23.42733 -46.46400 2463 ft 16 kts 73°
2026-04-25 16:46 -23.42698 -46.46272 2464 ft 19 kts 73°
2026-04-25 16:46 -23.42660 -46.46139 2463 ft 17 kts 72°
2026-04-25 16:46 -23.42626 -46.46022 2463 ft 15 kts 72°
2026-04-25 16:46 -23.42607 -46.45952 2467 ft 14 kts 74°
2026-04-25 16:47 -23.42575 -46.45831 2464 ft 11 kts 74°
2026-04-25 16:47 -23.42556 -46.45757 2462 ft 9 kts 74°
2026-04-25 16:47 -23.42537 -46.45685 2461 ft 12 kts 74°
2026-04-25 16:47 -23.42510 -46.45581 2462 ft 14 kts 74°
2026-04-25 16:48 -23.42485 -46.45485 2463 ft 12 kts 74°
2026-04-25 16:48 -23.42463 -46.45401 2465 ft 11 kts 74°
2026-04-25 16:48 -23.42444 -46.45330 2463 ft 9 kts 74°
2026-04-25 16:48 -23.42428 -46.45271 2462 ft 7 kts 74°
2026-04-25 16:49 -23.42416 -46.45223 2463 ft 6 kts 74°
2026-04-25 16:49 -23.42406 -46.45188 2461 ft 4 kts 74°
2026-04-25 16:49 -23.42395 -46.45145 2461 ft 8 kts 74°
2026-04-25 16:49 -23.42381 -46.45094 2461 ft 6 kts 74°
2026-04-25 16:50 -23.42371 -46.45055 2463 ft 5 kts 72°
2026-04-25 16:50 -23.42362 -46.45025 2465 ft 4 kts 72°
2026-04-25 16:50 -23.42354 -46.44997 2462 ft 6 kts 77°
2026-04-25 16:50 -23.42366 -46.44933 2464 ft 3 kts 130°
2026-04-25 16:51 -23.42369 -46.44930 2463 ft 1 kts 130°
2026-04-25 16:51 -23.42373 -46.44925 2461 ft 0 kts 130°
2026-04-25 16:51 -23.42374 -46.44923 2461 ft 0 kts 130°
2026-04-25 16:52 -23.42375 -46.44922 2460 ft 1 kts 130°
2026-04-25 16:52 -23.42381 -46.44915 2460 ft 1 kts 139°
2026-04-25 16:52 -23.42409 -46.44902 2462 ft 13 kts 166°
2026-04-25 16:52 -23.42495 -46.44930 2461 ft 13 kts 227°
2026-04-25 16:53 -23.42601 -46.45259 2463 ft 69 kts 253°
2026-04-25 16:53 -23.42800 -46.46036 2462 ft 139 kts 254°
2026-04-25 16:53 -23.43101 -46.47230 2531 ft 182 kts 259°
2026-04-25 16:54 -23.43325 -46.48583 3395 ft 183 kts 262°
2026-04-25 16:54 -23.43367 -46.49965 4256 ft 178 kts 280°
2026-04-25 16:54 -23.43095 -46.51189 5099 ft 159 kts 286°
2026-04-25 16:54 -23.42795 -46.52272 5852 ft 146 kts 285°
2026-04-25 16:55 -23.42487 -46.53364 6254 ft 155 kts 287°
2026-04-25 16:55 -23.42171 -46.54504 6661 ft 159 kts 287°
2026-04-25 16:55 -23.41852 -46.55675 7057 ft 165 kts 286°
2026-04-25 16:55 -23.41495 -46.57018 7241 ft 211 kts 282°
2026-04-25 16:56 -23.41079 -46.58673 7624 ft 243 kts 284°
2026-04-25 16:56 -23.40647 -46.60529 8133 ft 264 kts 284°
2026-04-25 16:56 -23.40181 -46.62497 8551 ft 270 kts 285°
2026-04-25 16:56 -23.39644 -46.64475 8971 ft 274 kts 286°
2026-04-25 16:57 -23.39081 -46.66480 9392 ft 279 kts 286°
2026-04-25 16:57 -23.38656 -46.67840 9683 ft 283 kts 294°
2026-04-25 16:57 -23.37027 -46.70064 10222 ft 289 kts 315°
2026-04-25 16:57 -23.35568 -46.71575 10603 ft 291 kts 315°
2026-04-25 16:58 -23.34100 -46.73105 10997 ft 294 kts 314°
2026-04-25 16:58 -23.32619 -46.74653 11395 ft 295 kts 313°
2026-04-25 16:58 -23.31141 -46.76204 11804 ft 297 kts 313°
2026-04-25 16:58 -23.29652 -46.77768 12205 ft 299 kts 313°
2026-04-25 16:59 -23.28147 -46.79351 12618 ft 302 kts 313°
2026-04-25 16:59 -23.26627 -46.80952 13036 ft 306 kts 313°
2026-04-25 16:59 -23.25091 -46.82571 13468 ft 309 kts 313°
2026-04-25 16:59 -23.23559 -46.84183 13881 ft 312 kts 313°
2026-04-25 17:00 -23.21999 -46.85822 14261 ft 312 kts 313°
2026-04-25 17:00 -23.20435 -46.87461 14648 ft 312 kts 313°
2026-04-25 17:00 -23.18733 -46.88948 15061 ft 316 kts 324°
2026-04-25 17:00 -23.16837 -46.90182 15463 ft 319 kts 327°
2026-04-25 17:01 -23.14920 -46.91407 15873 ft 320 kts 327°
2026-04-25 17:01 -23.12998 -46.92640 16290 ft 321 kts 326°
2026-04-25 17:01 -23.11075 -46.93877 16694 ft 322 kts 326°
2026-04-25 17:01 -23.09168 -46.95105 17115 ft 323 kts 326°
2026-04-25 17:02 -23.07233 -46.96352 17547 ft 324 kts 326°
2026-04-25 17:02 -23.05291 -46.97602 17985 ft 325 kts 326°
2026-04-25 17:02 -23.03343 -46.98854 18410 ft 326 kts 326°
2026-04-25 17:02 -23.02046 -46.99685 18656 ft 327 kts 326°
2026-04-25 17:03 -22.99415 -47.01367 19166 ft 330 kts 326°
2026-04-25 17:03 -22.97430 -47.02628 19547 ft 333 kts 328°
2026-04-25 17:03 -22.95296 -47.03663 19937 ft 339 kts 338°
2026-04-25 17:03 -22.92983 -47.04286 20330 ft 346 kts 348°
2026-04-25 17:04 -22.90610 -47.04609 20725 ft 350 kts 349°
2026-04-25 17:04 -22.88188 -47.04933 21126 ft 352 kts 349°
2026-04-25 17:04 -22.85744 -47.05265 21537 ft 355 kts 348°
2026-04-25 17:04 -22.83287 -47.05601 21948 ft 358 kts 348°
2026-04-25 17:05 -22.80809 -47.05940 22362 ft 360 kts 348°
2026-04-25 17:05 -22.75814 -47.06624 23210 ft 363 kts 349°
2026-04-25 17:05 -22.73300 -47.06967 23631 ft 364 kts 349°
2026-04-25 17:06 -22.70780 -47.07310 23994 ft 366 kts 348°
2026-04-25 17:06 -22.68287 -47.07648 24350 ft 367 kts 348°
2026-04-25 17:06 -22.65755 -47.07990 24728 ft 367 kts 348°
2026-04-25 17:06 -22.63217 -47.08332 25108 ft 367 kts 348°
2026-04-25 17:07 -22.60678 -47.08677 25495 ft 368 kts 348°
2026-04-25 17:07 -22.58142 -47.09022 25886 ft 368 kts 348°
2026-04-25 17:07 -22.55602 -47.09365 26284 ft 368 kts 348°
2026-04-25 17:07 -22.53062 -47.09709 26690 ft 367 kts 348°
2026-04-25 17:08 -22.50532 -47.10051 27086 ft 367 kts 348°
2026-04-25 17:08 -22.47996 -47.10394 27501 ft 366 kts 348°
2026-04-25 17:08 -22.45504 -47.10731 27914 ft 365 kts 347°
2026-04-25 17:08 -22.42986 -47.11070 28344 ft 364 kts 347°
2026-04-25 17:09 -22.40477 -47.11408 28784 ft 363 kts 347°
2026-04-25 17:09 -22.37979 -47.11743 29222 ft 361 kts 347°
2026-04-25 17:09 -22.35484 -47.12080 29553 ft 362 kts 347°
2026-04-25 17:09 -22.32978 -47.12420 29875 ft 364 kts 347°
2026-04-25 17:10 -22.30458 -47.12765 30144 ft 366 kts 347°
2026-04-25 17:10 -22.27925 -47.13111 30392 ft 368 kts 347°
2026-04-25 17:10 -22.25376 -47.13458 30663 ft 370 kts 347°
2026-04-25 17:10 -22.22819 -47.13802 30973 ft 370 kts 347°
2026-04-25 17:11 -22.20294 -47.14140 31264 ft 371 kts 347°
2026-04-25 17:11 -22.17728 -47.14485 31544 ft 373 kts 347°
2026-04-25 17:11 -22.15151 -47.14834 31806 ft 374 kts 347°
2026-04-25 17:11 -22.12559 -47.15183 32075 ft 376 kts 347°
2026-04-25 17:12 -22.09966 -47.15534 32345 ft 377 kts 347°
2026-04-25 17:12 -22.07356 -47.15887 32602 ft 379 kts 348°
2026-04-25 17:12 -22.04734 -47.16242 32853 ft 380 kts 348°
2026-04-25 17:12 -22.02099 -47.16597 33107 ft 382 kts 348°
2026-04-25 17:13 -21.99458 -47.16950 33349 ft 384 kts 348°
2026-04-25 17:13 -21.97701 -47.17182 33503 ft 385 kts 348°
2026-04-25 17:13 -21.94173 -47.17651 33832 ft 387 kts 348°
2026-04-25 17:13 -21.91493 -47.18010 34003 ft 390 kts 348°
2026-04-25 17:14 -21.86014 -47.18753 34028 ft 403 kts 348°
2026-04-25 17:14 -21.80423 -47.19501 34016 ft 406 kts 348°
2026-04-25 17:15 -21.74854 -47.20235 33980 ft 406 kts 349°
2026-04-25 17:15 -21.69250 -47.20969 33981 ft 406 kts 348°
2026-04-25 17:16 -21.63638 -47.21708 33985 ft 406 kts 348°
2026-04-25 17:16 -21.58032 -47.22447 33977 ft 406 kts 348°
2026-04-25 17:17 -21.52467 -47.23177 33983 ft 406 kts 348°
2026-04-25 17:17 -21.46865 -47.23913 33980 ft 405 kts 348°
2026-04-25 17:18 -21.41267 -47.24645 33976 ft 406 kts 348°
2026-04-25 17:18 -21.35663 -47.25381 33971 ft 405 kts 348°
2026-04-25 17:19 -21.30091 -47.26250 33971 ft 404 kts 346°
2026-04-25 17:19 -21.24579 -47.27221 33975 ft 404 kts 346°
2026-04-25 17:20 -21.19023 -47.28182 33974 ft 404 kts 347°
2026-04-25 17:20 -21.13464 -47.29105 33967 ft 404 kts 347°
2026-04-25 17:21 -21.07904 -47.30027 33977 ft 404 kts 347°
2026-04-25 17:21 -21.02391 -47.30943 33974 ft 404 kts 347°
2026-04-25 17:22 -20.97779 -47.31713 33975 ft 404 kts 347°
2026-04-25 17:22 -20.91293 -47.32790 33977 ft 404 kts 347°
2026-04-25 17:23 -20.85740 -47.33715 33977 ft 403 kts 347°
2026-04-25 17:23 -20.80231 -47.34635 33979 ft 403 kts 347°
2026-04-25 17:24 -20.74691 -47.35553 33985 ft 403 kts 347°
2026-04-25 17:24 -20.69142 -47.36473 33983 ft 403 kts 347°
2026-04-25 17:25 -20.63600 -47.37392 33979 ft 403 kts 347°
2026-04-25 17:25 -20.58081 -47.38307 33979 ft 404 kts 347°
2026-04-25 17:26 -20.52518 -47.39176 33980 ft 404 kts 348°
2026-04-25 17:26 -20.46949 -47.39998 33982 ft 404 kts 348°
2026-04-25 17:27 -20.41375 -47.40821 33974 ft 404 kts 348°
2026-04-25 17:27 -20.37684 -47.41374 33974 ft 404 kts 348°
2026-04-25 17:28 -20.30265 -47.42493 33978 ft 405 kts 348°
2026-04-25 17:28 -20.24688 -47.43329 33979 ft 405 kts 348°
2026-04-25 17:29 -20.19108 -47.44166 33969 ft 405 kts 349°
2026-04-25 17:29 -20.13532 -47.45004 33971 ft 405 kts 348°
2026-04-25 17:30 -20.07939 -47.45843 33975 ft 406 kts 349°
2026-04-25 17:30 -20.02389 -47.46672 33976 ft 405 kts 349°
2026-04-25 17:31 -19.96806 -47.47506 33977 ft 406 kts 349°
2026-04-25 17:31 -19.91214 -47.48348 33974 ft 406 kts 349°
2026-04-25 17:32 -19.85618 -47.49191 33984 ft 406 kts 349°
2026-04-25 17:32 -19.80022 -47.50032 33983 ft 406 kts 349°
2026-04-25 17:33 -19.74470 -47.50857 33984 ft 406 kts 349°
2026-04-25 17:33 -19.68866 -47.51676 33978 ft 406 kts 349°
2026-04-25 17:34 -19.63267 -47.52492 33982 ft 406 kts 349°
2026-04-25 17:34 -19.57663 -47.53308 33987 ft 406 kts 349°
2026-04-25 17:35 -19.52097 -47.54118 33992 ft 406 kts 349°
2026-04-25 17:35 -19.46497 -47.54934 33987 ft 407 kts 350°
2026-04-25 17:36 -19.40891 -47.55750 33983 ft 407 kts 350°
2026-04-25 17:36 -19.35283 -47.56573 33988 ft 407 kts 350°
2026-04-25 17:37 -19.29675 -47.57394 33986 ft 407 kts 350°
2026-04-25 17:37 -19.24099 -47.58204 33985 ft 407 kts 350°
2026-04-25 17:38 -19.19438 -47.58883 33987 ft 407 kts 350°
2026-04-25 17:38 -19.12881 -47.59841 33997 ft 407 kts 350°
2026-04-25 17:39 -19.07271 -47.60660 33997 ft 407 kts 350°
2026-04-25 17:39 -19.01669 -47.61470 33987 ft 406 kts 350°
2026-04-25 17:40 -18.96097 -47.62246 33991 ft 407 kts 351°
2026-04-25 17:40 -18.90485 -47.63010 33987 ft 407 kts 351°
2026-04-25 17:41 -18.84875 -47.63786 33984 ft 407 kts 351°
2026-04-25 17:41 -18.79300 -47.64564 33981 ft 407 kts 350°
2026-04-25 17:42 -18.73689 -47.65350 33979 ft 407 kts 351°
2026-04-25 17:42 -18.68072 -47.66125 33977 ft 407 kts 351°
2026-04-25 17:43 -18.62465 -47.66900 33972 ft 407 kts 351°
2026-04-25 17:43 -18.56888 -47.67682 33976 ft 407 kts 351°
2026-04-25 17:44 -18.51288 -47.68513 33971 ft 407 kts 351°
2026-04-25 17:44 -18.45681 -47.69349 33974 ft 407 kts 351°
2026-04-25 17:45 -18.41933 -47.69901 33968 ft 407 kts 351°
2026-04-25 17:45 -18.34473 -47.70986 33976 ft 407 kts 351°
2026-04-25 17:46 -18.28910 -47.71812 33967 ft 406 kts 350°
2026-04-25 17:46 -18.23319 -47.72737 33970 ft 407 kts 350°
2026-04-25 17:47 -18.17740 -47.73696 33966 ft 407 kts 350°
2026-04-25 17:47 -18.12155 -47.74640 33964 ft 406 kts 350°
2026-04-25 17:48 -18.03816 -47.76044 33958 ft 407 kts 351°
2026-04-25 17:49 -17.98229 -47.76980 33960 ft 407 kts 351°
2026-04-25 17:49 -17.92638 -47.77917 33962 ft 407 kts 351°
2026-04-25 17:50 -17.87044 -47.78844 33977 ft 407 kts 351°
2026-04-25 17:50 -17.81494 -47.79768 33965 ft 407 kts 351°
2026-04-25 17:51 -17.75901 -47.80703 33966 ft 407 kts 351°
2026-04-25 17:51 -17.70309 -47.81639 33965 ft 407 kts 351°
2026-04-25 17:52 -17.64729 -47.82572 33974 ft 406 kts 351°
2026-04-25 17:52 -17.59177 -47.83496 33974 ft 406 kts 351°
2026-04-25 17:53 -17.53599 -47.84425 33962 ft 406 kts 352°
2026-04-25 17:53 -17.48014 -47.85351 33962 ft 406 kts 352°
2026-04-25 17:54 -17.42429 -47.86276 33962 ft 406 kts 351°
2026-04-25 17:54 -17.36842 -47.87205 33965 ft 406 kts 351°
2026-04-25 17:55 -17.31292 -47.88125 33961 ft 406 kts 351°
2026-04-25 17:55 -17.25704 -47.89047 33966 ft 406 kts 352°
2026-04-25 17:56 -17.20119 -47.89979 33959 ft 406 kts 352°
2026-04-25 17:56 -17.14534 -47.90904 33958 ft 406 kts 352°
2026-04-25 17:57 -17.08983 -47.91819 33959 ft 406 kts 352°
2026-04-25 17:57 -17.03402 -47.92749 33959 ft 406 kts 352°
2026-04-25 17:58 -16.97813 -47.93676 33957 ft 406 kts 352°
2026-04-25 17:58 -16.92224 -47.94595 33959 ft 406 kts 352°
2026-04-25 17:59 -16.86675 -47.95508 33961 ft 407 kts 352°
2026-04-25 17:59 -16.81087 -47.96434 33963 ft 407 kts 352°
2026-04-25 18:00 -16.75501 -47.97364 33961 ft 406 kts 352°
2026-04-25 18:00 -16.69913 -47.98284 33966 ft 406 kts 352°
2026-04-25 18:01 -16.64329 -47.99200 33965 ft 406 kts 352°
2026-04-25 18:01 -16.58779 -48.00113 33968 ft 406 kts 352°
2026-04-25 18:02 -16.53196 -48.01030 33956 ft 407 kts 352°
2026-04-25 18:02 -16.47607 -48.01948 33962 ft 407 kts 352°
2026-04-25 18:03 -16.42018 -48.02866 33966 ft 407 kts 352°
2026-04-25 18:03 -16.36466 -48.03781 33961 ft 406 kts 352°
2026-04-25 18:04 -16.30879 -48.04704 33965 ft 406 kts 352°
2026-04-25 18:04 -16.25299 -48.05622 33960 ft 406 kts 352°
2026-04-25 18:05 -16.19705 -48.06537 33967 ft 407 kts 352°
2026-04-25 18:05 -16.14120 -48.07454 33983 ft 407 kts 352°
2026-04-25 18:06 -16.08564 -48.08368 34005 ft 407 kts 352°
2026-04-25 18:06 -16.02978 -48.09284 34025 ft 407 kts 353°
2026-04-25 18:07 -15.97386 -48.10193 34037 ft 407 kts 353°
2026-04-25 18:07 -15.91792 -48.11106 34043 ft 407 kts 353°
2026-04-25 18:08 -15.86190 -48.12022 34042 ft 407 kts 353°
2026-04-25 18:08 -15.80636 -48.12933 34040 ft 407 kts 353°
2026-04-25 18:09 -15.75033 -48.13847 34028 ft 408 kts 353°
2026-04-25 18:09 -15.69429 -48.14761 34010 ft 408 kts 353°
2026-04-25 18:10 -15.63826 -48.15669 33985 ft 408 kts 353°
2026-04-25 18:10 -15.58263 -48.16575 33959 ft 408 kts 353°
2026-04-25 18:11 -15.52562 -48.17476 33966 ft 421 kts 357°
2026-04-25 18:11 -15.46664 -48.17158 33966 ft 431 kts 14°
2026-04-25 18:12 -15.40898 -48.15220 33954 ft 441 kts 21°
2026-04-25 18:12 -15.35129 -48.13122 33961 ft 443 kts 21°
2026-04-25 18:13 -15.29294 -48.11024 33951 ft 443 kts 21°
2026-04-25 18:13 -15.23469 -48.08925 33957 ft 443 kts 21°
2026-04-25 18:14 -15.14771 -48.05788 33963 ft 443 kts 21°
2026-04-25 18:14 -15.08953 -48.03681 33963 ft 443 kts 21°
2026-04-25 18:15 -15.03133 -48.01585 33952 ft 443 kts 21°
2026-04-25 18:15 -14.97310 -47.99492 33952 ft 443 kts 21°
2026-04-25 18:16 -14.91524 -47.97408 33959 ft 443 kts 21°
2026-04-25 18:17 -14.82786 -47.94260 33959 ft 443 kts 21°
2026-04-25 18:17 -14.76962 -47.92170 33957 ft 443 kts 21°
2026-04-25 18:18 -14.71137 -47.90074 33954 ft 443 kts 21°
2026-04-25 18:18 -14.65309 -47.87982 33961 ft 444 kts 21°
2026-04-25 18:19 -14.59515 -47.85906 33958 ft 444 kts 21°
2026-04-25 18:19 -14.53689 -47.83814 33954 ft 444 kts 21°
2026-04-25 18:20 -14.47853 -47.81722 33956 ft 444 kts 21°
2026-04-25 18:20 -14.42023 -47.79631 33961 ft 444 kts 21°
2026-04-25 18:21 -14.36228 -47.77558 33959 ft 444 kts 21°
2026-04-25 18:21 -14.30390 -47.75473 33956 ft 444 kts 21°
2026-04-25 18:22 -14.24548 -47.73382 33949 ft 444 kts 21°
2026-04-25 18:22 -14.18713 -47.71294 33952 ft 444 kts 21°
2026-04-25 18:23 -14.12910 -47.69216 33957 ft 444 kts 21°
2026-04-25 18:23 -14.07071 -47.67128 33959 ft 444 kts 21°
2026-04-25 18:24 -14.01231 -47.65050 33948 ft 444 kts 21°
2026-04-25 18:24 -13.95390 -47.62970 33957 ft 444 kts 21°
2026-04-25 18:25 -13.89552 -47.60879 33960 ft 444 kts 21°
2026-04-25 18:25 -13.83754 -47.58809 33950 ft 444 kts 21°
2026-04-25 18:26 -13.77911 -47.56733 33950 ft 444 kts 21°
2026-04-25 18:26 -13.72074 -47.54661 33959 ft 444 kts 21°
2026-04-25 18:27 -13.66269 -47.52601 33945 ft 444 kts 21°
2026-04-25 18:27 -13.60444 -47.50522 33946 ft 443 kts 21°
2026-04-25 18:28 -13.54616 -47.48442 33933 ft 443 kts 21°
2026-04-25 18:28 -13.48782 -47.46367 33936 ft 443 kts 21°
2026-04-25 18:29 -13.40076 -47.43290 33932 ft 443 kts 21°
2026-04-25 18:30 -13.28437 -47.39160 33925 ft 443 kts 22°
2026-04-25 18:30 -13.22614 -47.37088 33915 ft 443 kts 22°
2026-04-25 18:31 -13.16795 -47.35029 33915 ft 443 kts 21°
2026-04-25 18:31 -13.11010 -47.32986 33901 ft 443 kts 21°
2026-04-25 18:32 -13.05191 -47.30924 33904 ft 442 kts 21°
2026-04-25 18:32 -12.99365 -47.28868 33900 ft 443 kts 21°
2026-04-25 18:33 -12.93581 -47.26827 33905 ft 443 kts 21°
2026-04-25 18:33 -12.87764 -47.24762 33906 ft 443 kts 21°
2026-04-25 18:34 -12.81933 -47.22700 33904 ft 443 kts 21°
2026-04-25 18:34 -12.76099 -47.20645 33910 ft 443 kts 21°
2026-04-25 18:35 -12.70277 -47.18588 33906 ft 442 kts 21°
2026-04-25 18:35 -12.64494 -47.16553 33898 ft 443 kts 21°
2026-04-25 18:36 -12.58659 -47.14502 33900 ft 443 kts 21°
2026-04-25 18:36 -12.52832 -47.12446 33895 ft 443 kts 21°
2026-04-25 18:37 -12.46998 -47.10390 33895 ft 443 kts 21°
2026-04-25 18:37 -12.41209 -47.08346 33897 ft 443 kts 21°
2026-04-25 18:38 -12.35377 -47.06293 33897 ft 443 kts 21°
2026-04-25 18:38 -12.29541 -47.04243 33896 ft 443 kts 21°
2026-04-25 18:39 -12.23709 -47.02188 33898 ft 444 kts 21°
2026-04-25 18:39 -12.17901 -47.00147 33898 ft 444 kts 21°
2026-04-25 18:40 -12.12062 -46.98108 33904 ft 444 kts 21°
2026-04-25 18:40 -12.06217 -46.96060 33906 ft 444 kts 21°
2026-04-25 18:41 -12.00367 -46.94008 33904 ft 444 kts 21°
2026-04-25 18:41 -11.94527 -46.91957 33904 ft 444 kts 21°
2026-04-25 18:42 -11.90653 -46.90614 33906 ft 444 kts 20°
2026-04-25 18:42 -11.82786 -46.88122 33906 ft 445 kts 19°
2026-04-25 18:43 -11.76870 -46.86300 33903 ft 445 kts 19°
2026-04-25 18:43 -11.70956 -46.84440 33904 ft 445 kts 19°
2026-04-25 18:44 -11.65051 -46.82562 33903 ft 445 kts 19°
2026-04-25 18:44 -11.59178 -46.80703 33909 ft 445 kts 19°
2026-04-25 18:45 -11.53276 -46.78835 33919 ft 444 kts 19°
2026-04-25 18:45 -11.47360 -46.76972 33918 ft 444 kts 19°
2026-04-25 18:46 -11.41457 -46.75107 33913 ft 444 kts 19°
2026-04-25 18:46 -11.35599 -46.73251 33914 ft 444 kts 19°
2026-04-25 18:47 -11.29696 -46.71383 33916 ft 444 kts 19°
2026-04-25 18:47 -11.23791 -46.69520 33916 ft 444 kts 19°
2026-04-25 18:48 -11.17893 -46.67660 33913 ft 444 kts 19°
2026-04-25 18:48 -11.12031 -46.65817 33912 ft 444 kts 19°
2026-04-25 18:49 -11.06126 -46.63962 33917 ft 444 kts 19°
2026-04-25 18:49 -11.00224 -46.62100 33917 ft 444 kts 19°
2026-04-25 18:50 -10.94321 -46.60236 33919 ft 444 kts 19°
2026-04-25 18:50 -10.88410 -46.58376 33920 ft 444 kts 19°
2026-04-25 18:51 -10.84500 -46.57148 33911 ft 444 kts 19°
2026-04-25 18:51 -10.76634 -46.54668 33913 ft 445 kts 19°
2026-04-25 18:52 -10.70727 -46.52805 33915 ft 445 kts 19°
2026-04-25 18:52 -10.64817 -46.50954 33912 ft 445 kts 19°
2026-04-25 18:53 -10.58937 -46.49112 33906 ft 445 kts 19°
2026-04-25 18:53 -10.53019 -46.47250 33909 ft 445 kts 19°
2026-04-25 18:54 -10.44136 -46.44462 33904 ft 445 kts 19°
2026-04-25 18:55 -10.38251 -46.42628 33905 ft 446 kts 18°
2026-04-25 18:55 -10.32323 -46.40772 33905 ft 446 kts 19°
2026-04-25 18:56 -10.27394 -46.39216 33896 ft 447 kts 18°
2026-04-25 18:56 -10.20452 -46.37033 33897 ft 447 kts 18°
2026-04-25 18:57 -10.15511 -46.35497 33897 ft 447 kts 17°
2026-04-25 18:57 -10.08547 -46.33491 33891 ft 448 kts 16°
2026-04-25 18:58 -10.03552 -46.32095 33892 ft 448 kts 17°
2026-04-25 18:58 -9.94535 -46.29546 33888 ft 448 kts 16°
2026-04-25 18:59 -9.81558 -46.25812 33891 ft 448 kts 17°
2026-04-25 19:00 -9.73563 -46.23529 33892 ft 449 kts 17°
2026-04-25 19:01 -9.64542 -46.20959 33893 ft 449 kts 16°
2026-04-25 19:01 -9.58532 -46.19239 33894 ft 449 kts 17°
2026-04-25 19:02 -9.49558 -46.16675 33894 ft 449 kts 17°
2026-04-25 19:03 -9.41560 -46.14387 33899 ft 448 kts 17°
2026-04-25 19:03 -9.34535 -46.12383 33898 ft 448 kts 17°
2026-04-25 19:04 -9.25568 -46.09830 33899 ft 448 kts 17°
2026-04-25 19:05 -9.13565 -46.06393 33895 ft 448 kts 17°
2026-04-25 19:06 -9.07555 -46.04678 33891 ft 448 kts 17°
2026-04-25 19:06 -8.98591 -46.02112 33894 ft 449 kts 18°
2026-04-25 19:07 -8.89574 -45.99533 33881 ft 450 kts 17°
2026-04-25 19:08 -8.80537 -45.96938 33882 ft 450 kts 17°
2026-04-25 19:09 -8.69523 -45.93789 33884 ft 451 kts 17°
2026-04-25 19:10 -8.60473 -45.91194 33896 ft 450 kts 17°
2026-04-25 19:10 -8.53471 -45.89200 33897 ft 450 kts 17°
2026-04-25 19:11 -8.47446 -45.87482 33897 ft 450 kts 17°
2026-04-25 19:11 -8.41427 -45.85761 33895 ft 450 kts 17°
2026-04-25 19:12 -8.35408 -45.84041 33896 ft 449 kts 17°
2026-04-25 19:12 -8.29387 -45.82315 33894 ft 449 kts 17°
2026-04-25 19:13 -8.23416 -45.80611 33900 ft 449 kts 17°
2026-04-25 19:13 -8.17398 -45.78899 33898 ft 449 kts 17°
2026-04-25 19:14 -8.11390 -45.77192 33922 ft 447 kts 17°
2026-04-25 19:14 -8.05423 -45.75521 33927 ft 444 kts 17°
2026-04-25 19:15 -7.99486 -45.73864 33926 ft 442 kts 17°
2026-04-25 19:15 -7.93602 -45.72224 33924 ft 441 kts 17°
2026-04-25 19:16 -7.87701 -45.70578 33918 ft 440 kts 17°
2026-04-25 19:16 -7.81814 -45.68932 33922 ft 438 kts 16°
2026-04-25 19:17 -7.75943 -45.67295 33919 ft 437 kts 16°
2026-04-25 19:17 -7.70116 -45.65671 33917 ft 437 kts 16°
2026-04-25 19:18 -7.64262 -45.64038 33918 ft 437 kts 16°
2026-04-25 19:18 -7.58404 -45.62409 33910 ft 437 kts 17°
2026-04-25 19:19 -7.52547 -45.60773 33898 ft 437 kts 17°
2026-04-25 19:19 -7.46685 -45.59134 33896 ft 437 kts 17°
2026-04-25 19:20 -7.40856 -45.57514 33899 ft 438 kts 17°
2026-04-25 19:20 -7.34980 -45.55883 33901 ft 438 kts 17°
2026-04-25 19:21 -7.29107 -45.54245 33893 ft 438 kts 17°
2026-04-25 19:21 -7.20313 -45.51793 33889 ft 439 kts 17°
2026-04-25 19:22 -7.14416 -45.50150 33896 ft 440 kts 17°
2026-04-25 19:23 -7.05569 -45.47689 33899 ft 440 kts 17°
2026-04-25 19:23 -6.96746 -45.45237 33899 ft 441 kts 17°
2026-04-25 19:24 -6.90832 -45.43587 33903 ft 441 kts 17°
2026-04-25 19:25 -6.78994 -45.40295 33910 ft 441 kts 17°
2026-04-25 19:25 -6.73071 -45.38658 33912 ft 441 kts 17°
2026-04-25 19:26 -6.67196 -45.37028 33914 ft 441 kts 17°
2026-04-25 19:26 -6.61275 -45.35378 33919 ft 441 kts 18°
2026-04-25 19:27 -6.56361 -45.34011 33924 ft 441 kts 17°
2026-04-25 19:27 -6.49484 -45.32104 33924 ft 441 kts 17°
2026-04-25 19:28 -6.43569 -45.30463 33930 ft 441 kts 18°
2026-04-25 19:28 -6.37648 -45.28815 33925 ft 441 kts 18°
2026-04-25 19:29 -6.31736 -45.27178 33925 ft 441 kts 18°
2026-04-25 19:29 -6.25821 -45.25541 33926 ft 441 kts 18°
2026-04-25 19:30 -6.19955 -45.23914 33929 ft 441 kts 18°
2026-04-25 19:30 -6.14045 -45.22267 33927 ft 440 kts 18°
2026-04-25 19:31 -6.08143 -45.20616 33926 ft 440 kts 18°
2026-04-25 19:31 -6.02272 -45.18986 33925 ft 440 kts 18°
2026-04-25 19:32 -5.96369 -45.17351 33919 ft 440 kts 18°
2026-04-25 19:32 -5.91465 -45.15989 33927 ft 440 kts 18°
2026-04-25 19:33 -5.84572 -45.14046 33922 ft 440 kts 18°
2026-04-25 19:33 -5.78718 -45.12381 33917 ft 440 kts 18°
2026-04-25 19:34 -5.72835 -45.10707 33921 ft 440 kts 18°
2026-04-25 19:34 -5.66946 -45.09042 33917 ft 440 kts 18°
2026-04-25 19:35 -5.61057 -45.07379 33918 ft 440 kts 18°
2026-04-25 19:35 -5.55167 -45.05708 33915 ft 440 kts 18°
2026-04-25 19:36 -5.49316 -45.04049 33914 ft 440 kts 18°
2026-04-25 19:36 -5.43426 -45.02379 33914 ft 440 kts 18°
2026-04-25 19:37 -5.37536 -45.00727 33914 ft 440 kts 18°
2026-04-25 19:37 -5.31641 -44.99064 33913 ft 440 kts 18°
2026-04-25 19:38 -5.25781 -44.97409 33914 ft 440 kts 18°
2026-04-25 19:38 -5.19883 -44.95740 33912 ft 440 kts 18°
2026-04-25 19:39 -5.13981 -44.94078 33912 ft 440 kts 18°
2026-04-25 19:39 -5.08084 -44.92407 33920 ft 440 kts 18°
2026-04-25 19:40 -5.02186 -44.90740 33920 ft 440 kts 18°
2026-04-25 19:40 -4.96329 -44.89090 33920 ft 440 kts 18°
2026-04-25 19:41 -4.90430 -44.87432 33922 ft 440 kts 18°
2026-04-25 19:41 -4.85529 -44.86048 33924 ft 440 kts 18°
2026-04-25 19:42 -4.78635 -44.84096 33916 ft 440 kts 18°
2026-04-25 19:42 -4.72777 -44.82442 33914 ft 441 kts 17°
2026-04-25 19:43 -4.66876 -44.80784 33914 ft 441 kts 18°
2026-04-25 19:43 -4.60968 -44.79121 33914 ft 441 kts 18°
2026-04-25 19:44 -4.55064 -44.77455 33906 ft 441 kts 18°
2026-04-25 19:44 -4.49193 -44.75794 33907 ft 442 kts 18°
2026-04-25 19:45 -4.43262 -44.74122 33910 ft 443 kts 18°
2026-04-25 19:45 -4.37336 -44.72451 33913 ft 443 kts 17°
2026-04-25 19:46 -4.31406 -44.70781 33907 ft 443 kts 17°
2026-04-25 19:46 -4.25492 -44.69162 33905 ft 444 kts 16°
2026-04-25 19:47 -4.19504 -44.67663 33910 ft 444 kts 15°
2026-04-25 19:47 -4.13495 -44.66199 33913 ft 444 kts 15°
2026-04-25 19:48 -4.07501 -44.64707 33709 ft 443 kts 16°
2026-04-25 19:48 -4.04517 -44.63954 33384 ft 440 kts 16°
2026-04-25 19:48 -4.01560 -44.63205 33050 ft 437 kts 16°
2026-04-25 19:49 -3.98655 -44.62470 32734 ft 435 kts 16°
2026-04-25 19:49 -3.96679 -44.61969 32517 ft 433 kts 16°
2026-04-25 19:49 -3.92822 -44.60992 32096 ft 430 kts 16°
2026-04-25 19:49 -3.89929 -44.60256 31797 ft 428 kts 17°
2026-04-25 19:50 -3.84215 -44.58700 31174 ft 423 kts 18°
2026-04-25 19:50 -3.81391 -44.57902 30808 ft 421 kts 18°
2026-04-25 19:50 -3.78588 -44.57106 30378 ft 415 kts 18°
2026-04-25 19:51 -3.75854 -44.56333 29963 ft 401 kts 18°
2026-04-25 19:51 -3.73211 -44.55590 29489 ft 388 kts 18°
2026-04-25 19:51 -3.70690 -44.54886 29020 ft 376 kts 18°
2026-04-25 19:51 -3.68203 -44.54194 28558 ft 368 kts 18°
2026-04-25 19:52 -3.65751 -44.53515 28083 ft 362 kts 18°
2026-04-25 19:52 -3.63343 -44.52847 27610 ft 357 kts 18°
2026-04-25 19:52 -3.60961 -44.52188 27143 ft 353 kts 18°
2026-04-25 19:52 -3.58604 -44.51539 26684 ft 349 kts 18°
2026-04-25 19:53 -3.56278 -44.50898 26225 ft 344 kts 18°
2026-04-25 19:53 -3.53986 -44.50264 25790 ft 340 kts 18°
2026-04-25 19:53 -3.51716 -44.49635 25357 ft 336 kts 18°
2026-04-25 19:53 -3.49501 -44.49021 24926 ft 332 kts 18°
2026-04-25 19:54 -3.47287 -44.48407 24506 ft 329 kts 18°
2026-04-25 19:54 -3.45099 -44.47799 24090 ft 325 kts 18°
2026-04-25 19:54 -3.42936 -44.47199 23672 ft 320 kts 18°
2026-04-25 19:54 -3.41523 -44.46808 23388 ft 318 kts 18°
2026-04-25 19:55 -3.38692 -44.46025 22738 ft 313 kts 18°
2026-04-25 19:55 -3.36608 -44.45451 22256 ft 310 kts 18°
2026-04-25 19:55 -3.34542 -44.44882 21783 ft 306 kts 18°
2026-04-25 19:55 -3.32498 -44.44320 21317 ft 303 kts 18°
2026-04-25 19:56 -3.30505 -44.43773 20864 ft 299 kts 18°
2026-04-25 19:56 -3.28511 -44.43223 20413 ft 296 kts 18°
2026-04-25 19:56 -3.26534 -44.42677 19970 ft 293 kts 18°
2026-04-25 19:56 -3.24581 -44.42134 19532 ft 290 kts 18°
2026-04-25 19:57 -3.22642 -44.41596 19097 ft 288 kts 17°
2026-04-25 19:57 -3.20719 -44.41063 18672 ft 285 kts 17°
2026-04-25 19:57 -3.18816 -44.40536 18257 ft 282 kts 17°
2026-04-25 19:57 -3.16934 -44.40015 17773 ft 280 kts 17°
2026-04-25 19:58 -3.15061 -44.39498 17292 ft 277 kts 17°
2026-04-25 19:58 -3.13235 -44.38994 16824 ft 275 kts 17°
2026-04-25 19:58 -3.11395 -44.38486 16363 ft 274 kts 17°
2026-04-25 19:58 -3.09562 -44.37990 15905 ft 272 kts 13°
2026-04-25 19:59 -3.07679 -44.37933 15451 ft 273 kts 349°
2026-04-25 19:59 -3.05935 -44.38649 15008 ft 274 kts 324°
2026-04-25 19:59 -3.04648 -44.40041 14562 ft 275 kts 299°
2026-04-25 19:59 -3.04059 -44.41845 14132 ft 275 kts 274°
2026-04-25 20:00 -3.04267 -44.43729 13693 ft 274 kts 249°
2026-04-25 20:00 -3.04829 -44.44847 13373 ft 272 kts 232°
2026-04-25 20:00 -3.06728 -44.46404 12748 ft 267 kts 200°
2026-04-25 20:00 -3.08518 -44.46772 12269 ft 262 kts 176°
2026-04-25 20:01 -3.12101 -44.46378 11426 ft 255 kts 171°
2026-04-25 20:01 -3.13844 -44.46172 11142 ft 251 kts 172°
2026-04-25 20:01 -3.15572 -44.45969 10859 ft 249 kts 172°
2026-04-25 20:02 -3.17295 -44.45768 10578 ft 248 kts 172°
2026-04-25 20:02 -3.19008 -44.45568 10304 ft 248 kts 172°
2026-04-25 20:02 -3.20676 -44.45182 10036 ft 244 kts 151°
2026-04-25 20:02 -3.21965 -44.44212 10020 ft 235 kts 128°
2026-04-25 20:03 -3.22744 -44.42799 10024 ft 233 kts 103°
2026-04-25 20:03 -3.22851 -44.41195 10021 ft 231 kts 79°
2026-04-25 20:03 -3.22284 -44.39705 9955 ft 233 kts 55°
2026-04-25 20:03 -3.21139 -44.38583 9714 ft 231 kts 31°
2026-04-25 20:04 -3.19632 -44.38064 9433 ft 232 kts
2026-04-25 20:04 -3.18020 -44.38127 9157 ft 233 kts 357°
2026-04-25 20:04 -3.16409 -44.38250 8879 ft 232 kts 357°
2026-04-25 20:04 -3.14797 -44.38379 8607 ft 232 kts 357°
2026-04-25 20:05 -3.13213 -44.38507 8343 ft 231 kts 357°
2026-04-25 20:05 -3.11610 -44.38635 8088 ft 231 kts 357°
2026-04-25 20:05 -3.10009 -44.38763 7846 ft 230 kts 357°
2026-04-25 20:05 -3.08418 -44.38890 7606 ft 230 kts 357°
2026-04-25 20:06 -3.06823 -44.39021 7367 ft 229 kts 357°
2026-04-25 20:06 -3.05234 -44.39149 7128 ft 229 kts 357°
2026-04-25 20:06 -3.03652 -44.39276 6894 ft 228 kts 357°
2026-04-25 20:06 -3.02061 -44.39402 6664 ft 234 kts 357°
2026-04-25 20:07 -3.00443 -44.39530 6434 ft 237 kts 357°
2026-04-25 20:07 -2.98799 -44.39660 6196 ft 237 kts 357°
2026-04-25 20:07 -2.97155 -44.39791 5948 ft 236 kts 357°
2026-04-25 20:07 -2.95519 -44.39922 5704 ft 236 kts 358°
2026-04-25 20:08 -2.93887 -44.40053 5459 ft 235 kts 357°
2026-04-25 20:08 -2.92263 -44.40184 5218 ft 234 kts 358°
2026-04-25 20:08 -2.90645 -44.40314 4978 ft 233 kts 358°
2026-04-25 20:08 -2.89028 -44.40444 4740 ft 233 kts 358°
2026-04-25 20:09 -2.87440 -44.40572 4494 ft 232 kts 358°
2026-04-25 20:09 -2.85841 -44.40702 4253 ft 229 kts 357°
2026-04-25 20:09 -2.84260 -44.40830 4008 ft 227 kts 357°
2026-04-25 20:09 -2.82691 -44.40958 3766 ft 225 kts 358°
2026-04-25 20:10 -2.81142 -44.40968 3524 ft 221 kts 12°
2026-04-25 20:10 -2.79722 -44.40447 3286 ft 216 kts 34°
2026-04-25 20:10 -2.78532 -44.39542 3047 ft 215 kts 40°
2026-04-25 20:10 -2.77379 -44.38602 2848 ft 211 kts 41°
2026-04-25 20:11 -2.76269 -44.37703 2630 ft 201 kts 41°
2026-04-25 20:11 -2.75224 -44.36860 2521 ft 189 kts 40°
2026-04-25 20:11 -2.74247 -44.36072 2514 ft 174 kts 40°
2026-04-25 20:11 -2.73339 -44.35340 2448 ft 164 kts 41°
2026-04-25 20:12 -2.72462 -44.34632 2300 ft 160 kts 39°
2026-04-25 20:12 -2.71603 -44.33939 2091 ft 159 kts 39°
2026-04-25 20:12 -2.70738 -44.33241 1898 ft 158 kts 39°
2026-04-25 20:12 -2.70452 -44.33011 1860 ft 156 kts 39°
2026-04-25 20:13 -2.69091 -44.31913 1836 ft 150 kts 40°
2026-04-25 20:13 -2.68283 -44.31262 1836 ft 149 kts 40°
2026-04-25 20:13 -2.67489 -44.30622 1834 ft 148 kts 40°
2026-04-25 20:13 -2.66681 -44.29970 1801 ft 150 kts 40°
2026-04-25 20:14 -2.65874 -44.29320 1676 ft 147 kts 39°
2026-04-25 20:14 -2.65096 -44.28692 1523 ft 142 kts 39°
2026-04-25 20:14 -2.64334 -44.28078 1341 ft 141 kts 39°
2026-04-25 20:14 -2.63575 -44.27466 1157 ft 140 kts 39°
2026-04-25 20:15 -2.62820 -44.26858 988 ft 138 kts 41°
2026-04-25 20:15 -2.62069 -44.26252 810 ft 138 kts 40°
2026-04-25 20:15 -2.61323 -44.25651 627 ft 136 kts 40°
2026-04-25 20:15 -2.60602 -44.25047 456 ft 137 kts 42°
2026-04-25 20:16 -2.59850 -44.24448 272 ft 138 kts 39°
2026-04-25 20:16 -2.59135 -44.23878 165 ft 111 kts 39°
2026-04-25 20:16 -2.58773 -44.23585 161 ft 24 kts 39°
2026-04-25 20:16 -2.58746 -44.23563 161 ft 2 kts 38°
2026-04-25 20:17 -2.58710 -44.23536 161 ft 11 kts 36°
2026-04-25 20:17 -2.58645 -44.23489 161 ft 12 kts 34°
2026-04-25 20:17 -2.58571 -44.23435 160 ft 15 kts 37°
2026-04-25 20:17 -2.58473 -44.23413 158 ft 17 kts 325°
2026-04-25 20:18 -2.58458 -44.23429 158 ft 0 kts 298°
2026-04-25 20:19 -2.58424 -44.23612 158 ft 0 kts 340°